Regional Weather Roundup
Issued by NWS

Home | Current Version | Previous Version | Graphics & Text | Print | Product List | Glossary Off
Versions: 1 2 3 4 5 6 7 8 9 10 11 12 13 14 15 16 17 18 19 20 21 22 23 24 25 26 27 28 29 30 31 32 33 34 35 36 37 38 39 40 41 42 43 44 45 46 47 48 49 50

000
ASUS43 KMKX 290821
RWRWI

WISCONSIN REGIONAL WEATHER ROUNDUP
NATIONAL WEATHER SERVICE MILWAUKEE/SULLIVAN WI
200 AM CST MON DEC 29 2014

NOTE: "FAIR" INDICATES FEW OR NO CLOUDS BELOW 12,000 FEET WITH NO
SIGNIFICANT WEATHER AND/OR OBSTRUCTIONS TO VISIBILITY.

WIZ001-002-006>008-014>016-023>028-290900-
NORTHWEST WISCONSIN

CITY           SKY/WX    TMP DP  RH WIND       PRES   REMARKS
SUPERIOR ARPT  CLEAR      1  -7  69 N6        30.46R WCI -10
ASHLAND        CLEAR     -5  -9  83 W6        30.39R WCI -18
HAYWARD        PTCLDY   -10 -14  82 CALM      30.37R
SIREN          PTCLDY    -5  -8  85 NW3       30.42R
CUMBERLAND     PTCLDY     1  -8  66 N3        30.36R
RICE LAKE      PTCLDY     0  -5  78 CALM      30.40R
CHETEK         PTCLDY    -2  -6  85 CALM      30.38R
LADYSMITH      PTCLDY    -3  -7  84 CALM      30.37R
EAU CLAIRE     CLOUDY     5  -1  76 NW5       30.39R WCI  -4
MENOMONIE      MOCLDY     8   0  71 N8        30.40R WCI  -5
NEW RICHMOND   PTCLDY     0  -5  77 CALM      30.40R
OSCEOLA        PTCLDY     4  -1  79 N5        30.44S WCI  -6
$$

WIZ003>005-009-010-017-018-290900-
NORTH CENTRAL WISCONSIN

CITY           SKY/WX    TMP DP  RH WIND       PRES   REMARKS
MANITOWISH WTR LGT SNOW -14 -19  79 CALM      30.27R
ARBOR VITAE    PTCLDY    -9 -14  78 CALM      30.27R
WOODRUFF       PTCLDY    -9 -14  78 CALM      30.27R
RHINELANDER    PTCLDY    -4  -7  87 NW6       30.27R WCI -16
EAGLE RIVER    FLURRIES  -6 -11  78 CALM      30.25R
LAND O LAKES   FLURRIES   4   1  87 W5        30.25R WCI  -5
PHILLIPS       PTCLDY   -15 -20  80 CALM      30.31R
TOMAHAWK       PTCLDY   -13 -18  79 CALM      30.30R
MEDFORD        MOCLDY   N/A N/A N/A N3        30.29S
MERRILL        PTCLDY    -5  -8  85 CALM      30.30R
$$

WIZ029-030-035-036-043>047-290900-
CENTRAL WISCONSIN

CITY           SKY/WX    TMP DP  RH WIND       PRES   REMARKS
WAUSAU         PTCLDY     3   0  87 NW3       30.30R
MOSINEE        MOCLDY     5   3  92 N7        30.31R WCI  -7
MARSHFIELD     MOCLDY     7   2  80 N7        30.31R WCI  -5
STEVENS POINT  MOCLDY     7   4  86 N5        30.31S WCI  -2
WAUPACA        FAIR      15   8  73 N6        30.34R WCI   6
WAUTOMA        MOCLDY    15   9  77 N6        30.34R WCI   6
WISC RAPIDS    MOCLDY    12   6  77 N5        30.34R WCI   4
CAMP DOUGLAS   MOCLDY    14  13  96 N1        30.33R
$$

WIZ011>013-019>022-031-037>040-048>050-290900-
NORTHEAST WISCONSIN

CITY           SKY/WX    TMP DP  RH WIND       PRES   REMARKS
ANTIGO         PTCLDY    -1  -4  87 CALM      30.27S
SHAWANO        PTCLDY    13   7  79 CALM      30.34R
OCONTO         PTCLDY    11   7  84 CALM      30.34S
STURGEON BAY   PTCLDY    16   7  67 NW9       30.33R WCI   4
GREEN BAY      PTCLDY    15   7  70 N7        30.34R WCI   5
MANITOWOC      PTCLDY    17  12  80 N10       30.32R WCI   5
APPLETON       PTCLDY    16   7  67 N9        30.32R WCI   4
CLINTONVILLE   PTCLDY    12   7  79 N5        30.34R WCI   4
OSHKOSH        MOCLDY    18   9  68 N9        30.31R WCI   7
$$

WIZ032>034-041-042-053>061-290900-
SOUTHWEST WISCONSIN

CITY           SKY/WX    TMP DP  RH WIND       PRES   REMARKS
LA CROSSE      CLOUDY    18  12  77 N6        30.36R WCI  10
SPARTA         MOCLDY    15  11  86 CALM      30.35R
VIROQUA        CLOUDY    18  15  90 N3        30.30R
BOSCOBEL       CLOUDY    23  12  62 NE7       30.33R WCI  15
PRAIRIE DU CHI CLOUDY    24  15  69 N3        30.32R
PLATTEVILLE    CLOUDY    24  21  85 CALM      30.29R
$$

WIZ056-057-062-063-064-067-068-290900-
SOUTH CENTRAL WISCONSIN

CITY           SKY/WX    TMP DP  RH WIND       PRES   REMARKS
REEDSBURG      CLOUDY    18  13  82 N5        30.32R WCI  11
BARABOO/DELLS  CLOUDY    18  13  82 N3        30.30R
LONE ROCK      CLOUDY    25  12  58 NE6       30.33R WCI  18
MINERAL POINT  CLOUDY    25  19  80 NE8       30.27R WCI  16
MADISON        CLOUDY    21  14  74 N10       30.30R WCI  10
MIDDLETON      CLOUDY    23  15  71 NE8       30.31R WCI  14
WATERTOWN      MOCLDY    21  18  86 N6        30.30R WCI  14
MONROE         CLOUDY    25  23  93 N6        30.26R WCI  18
JANESVILLE     CLOUDY    28  21  74 N7        30.28R WCI  21
$$

WIZ051-052-058>065-066-070>072-290900-
SOUTHEAST WISCONSIN

CITY           SKY/WX    TMP DP  RH WIND       PRES   REMARKS
MILWAUKEE      MOCLDY    26  19  74 N7        30.29R WCI  18
WAUKESHA       PTCLDY    23  18  80 N7        30.29R WCI  15
MILWAUKEE/TIMM MOCLDY    25  18  74 N10       30.30R WCI  15
RACINE         CLOUDY    26  19  74 NW5       30.30R WCI  20
BURLINGTON     MOCLDY    23  20  88 N5        30.28R WCI  17
KENOSHA        MOCLDY    27  20  75 N6        30.28R WCI  20
FOND DU LAC    MOCLDY    19  10  68 N13       30.30R WCI   6
SHEBOYGAN      PTCLDY    19  11  70 N10       30.30R WCI   7
WEST BEND      PTCLDY    21  14  73 CALM      30.29R
JUNEAU         MOCLDY    19  15  84 N6        30.31R WCI  11
$$

LSZ147-162-290900-
LAKE SUPERIOR

STATION/POSITION TIME  TEMP    WIND        PRES    WAVE
                       AIR SEA DIR/SP/G            HT/PER
                 (UTC) (F)     (DEG/KT/KT) (MB)    (FT/S)
DEVILS ISLAND    0800    8     320/ 14/ 16 1030.9R
PORT WING        0740    8     310/ 11/ 15 1029.8R
SAXON HARBOR     0700    7     200/  6/  8 1028.1R
$$

LMZ867-665-643>646-290900-
LAKE MICHIGAN

STATION/POSITION TIME  TEMP    WIND        PRES    WAVE
                       AIR SEA DIR/SP/G            HT/PER
                 (UTC) (F)     (DEG/KT/KT) (MB)    (FT/S)
CHAMBERS ISLAND  0700   16     310/  8/ 13 1026.4R
NORTHPORT PIER   0710   18     320/ 16/ 22 1026.1R
SISTER BAY       0713          350/ 18/ 23   N/A
ALGOMA LAKESHORE 0745          330/  8/ 10   N/A
KEWAUNEE LAKESHO 0800   16     330/  4/  8 1026.1R
SHEBOYGAN LAKESH 0800   21 36  360/ 17/ 18 1027.7R
PORT WASHINGTON  0800   23     350/  2/ 20 1027.4R
MILWAUKEE LAKESH 0800   26     350/ 10/ 13   N/A
KENOSHA   LAKESH 0800   28     330/  7/  9 1025.4R
$$

TC  - TEMPERATURE IN CELSIUS
VSB - VISIBILITY IN STATUTE MILES
WCI - WIND CHILL INDEX
HX  - HEAT INDEX




USA.gov is the U.S. government's official web portal to all federal, state and local government web resources and services.